2017-008BT

Last updated on Wed Mar 01 2017 00:15:03 GMT+0000 (Coordinated Universal Time)

1 42013U 17008BT 17059.81195776 .00001506 00000-0 68595-4 0 9991 2 42013 97.5084 121.4291 0006521 229.4480 130.6167 15.22231962 1848
UTC large
Height (km)
Speed (km/s)
/
Latitude / Longitude
Inclination (degrees)
Orbital Period (minutes)
Azimuth
Elevation
Range (km)
Doppler Factor

Next 0 passes for location: London (51.5072 / 0.1276)

Sorry there are no passes over London.